Date String (YYYY-MM-DD hh:mm:ss) UTC,Instrument flags,Ambient pressure (hPa),Sample flow (lpm),Bypass flow (lpm),Sample temperature (°C),Ambient temperature (°C),ASC tube jacket temperature (°C),LED temperature (°C),Box temperature (°C),Sample RH (%),Span deviation,Mass concentration (μg/m³),Mass concentration (μg/m³),Mass concentration (μg/m³)
DateTimeUTC,F1_M11,P_M11,Q1_M11,Q2_M11,T1_M11,T2_M11,T3_M11,T4_M11,T5_M11,U1_M11,ZSPAN_M11,X0_M11,X2_M11,X1_M11
2022-08-27 07:00:00,,0825.2,5.01,0.00,30.1,28.2,00.0,39.0,31.9,23.9,0000.0,0009.32,0003.93,0003.48
2022-08-27 07:01:00,,0825.2,5.01,0.00,30.1,28.4,00.0,39.0,31.9,24.0,0000.0,0008.97,0003.94,0003.45
2022-08-27 07:02:00,,0825.2,5.00,0.00,30.1,28.5,00.0,39.0,31.9,23.9,0000.0,0008.74,0003.92,0003.42
2022-08-27 07:03:00,,0825.2,4.99,0.00,30.1,28.6,00.0,39.0,31.9,23.9,0000.0,0008.59,0003.87,0003.40
2022-08-27 07:04:00,,0825.2,5.00,0.00,30.1,28.7,00.0,39.0,32.0,23.8,0000.0,0008.18,0003.82,0003.37
2022-08-27 07:05:00,,0825.1,4.99,0.00,30.1,28.8,00.0,39.0,32.0,23.9,0000.0,0008.42,0003.79,0003.36
2022-08-27 07:06:00,,0825.1,5.02,0.00,30.2,28.8,00.0,39.0,32.0,23.9,0000.0,0008.50,0003.77,0003.34
2022-08-27 07:07:00,,0825.1,5.00,0.00,30.2,28.9,00.0,39.0,32.0,24.2,0000.0,0008.52,0003.76,0003.33
2022-08-27 07:08:00,,0825.1,5.00,0.00,30.2,28.9,00.0,39.0,32.0,24.4,0000.0,0008.48,0003.74,0003.32
2022-08-27 07:09:00,,0825.1,5.00,0.00,30.2,29.0,00.0,39.0,32.0,24.6,0000.0,0008.49,0003.77,0003.32
2022-08-27 07:10:00,,0825.1,4.99,0.00,30.2,29.0,00.0,39.0,32.0,24.7,0000.0,0007.99,0003.81,0003.33
2022-08-27 07:11:00,,0825.1,5.00,0.00,30.2,29.0,00.0,39.0,32.0,24.6,0000.0,0007.75,0003.84,0003.34
2022-08-27 07:12:00,,0825.1,4.99,0.00,30.2,29.1,00.0,39.0,32.1,24.6,0000.0,0007.33,0003.85,0003.36
2022-08-27 07:13:00,,0825.1,5.01,0.00,30.2,29.1,00.0,39.0,32.1,24.6,0000.0,0007.56,0003.90,0003.38
2022-08-27 07:14:00,,0825.2,4.99,0.00,30.3,29.1,00.0,39.0,32.1,24.7,0000.0,0007.86,0003.96,0003.39
2022-08-27 07:15:00,,0825.2,4.99,0.00,30.3,29.1,00.0,39.1,32.1,24.5,0000.0,0008.00,0003.99,0003.40
2022-08-27 07:16:00,,0825.2,5.01,0.00,30.3,29.2,00.0,39.1,32.1,24.5,0000.0,0007.71,0004.00,0003.41
2022-08-27 07:17:00,,0825.2,5.00,0.00,30.3,29.2,00.0,39.1,32.1,24.5,0000.0,0007.76,0004.04,0003.43
2022-08-27 07:18:00,,0825.1,5.00,0.00,30.3,29.2,00.0,39.1,32.2,24.7,0000.0,0007.69,0004.04,0003.45
2022-08-27 07:19:00,,0825.1,5.02,0.00,30.4,29.3,00.0,39.1,32.2,24.7,0000.0,0007.76,0004.08,0003.46
2022-08-27 07:20:00,,0825.0,5.00,0.00,30.4,29.3,00.0,39.1,32.2,24.6,0000.0,0007.81,0004.08,0003.48
2022-08-27 07:21:00,,0825.0,5.00,0.00,30.4,29.3,00.0,39.2,32.2,24.5,0000.0,0008.34,0004.06,0003.49
2022-08-27 07:22:00,,0825.0,5.00,0.00,30.4,29.3,00.0,39.2,32.2,24.5,0000.0,0008.83,0004.05,0003.50
2022-08-27 07:23:00,,0825.0,5.00,0.00,30.4,29.3,00.0,39.2,32.3,24.7,0000.0,0008.78,0004.05,0003.51
2022-08-27 07:24:00,,0824.9,5.00,0.00,30.4,29.4,00.0,39.2,32.3,24.8,0000.0,0008.63,0004.07,0003.53
2022-08-27 07:25:00,,0824.9,5.01,0.00,30.5,29.4,00.0,39.2,32.3,24.7,0000.0,0008.85,0004.05,0003.55
2022-08-27 07:26:00,,0824.9,4.99,0.00,30.5,29.4,00.0,39.2,32.3,24.6,0000.0,0009.01,0004.06,0003.57
2022-08-27 07:27:00,,0824.9,5.00,0.00,30.5,29.4,00.0,39.2,32.3,24.4,0000.0,0009.37,0004.08,0003.57
2022-08-27 07:28:00,,0824.9,4.99,0.00,30.5,29.4,00.0,39.3,32.3,24.4,0000.0,0009.40,0004.11,0003.58
2022-08-27 07:29:00,,0824.9,5.01,0.00,30.5,29.4,00.0,39.3,32.4,24.5,0000.0,0009.69,0004.18,0003.59
2022-08-27 07:30:00,,0824.9,5.01,0.00,30.5,28.9,00.0,39.3,32.3,24.6,0000.0,0009.87,0004.20,0003.59
2022-08-27 07:31:00,,0824.9,5.00,0.00,30.5,27.4,00.0,39.2,32.2,24.6,0000.0,0009.76,0004.17,0003.60
2022-08-27 07:32:00,,0824.9,5.00,0.00,30.5,27.0,00.0,39.2,32.2,24.8,0000.0,0009.43,0004.21,0003.61
2022-08-27 07:33:00,,0824.8,5.00,0.00,30.3,27.1,00.0,39.1,31.9,25.0,0000.0,0008.79,0004.25,0003.61
2022-08-27 07:34:00,,0824.8,4.99,0.00,30.2,27.4,00.0,39.1,31.8,25.2,0000.0,0008.75,0004.26,0003.61
2022-08-27 07:35:00,,0824.7,5.01,0.00,30.2,27.7,00.0,39.1,31.8,25.2,0000.0,0008.72,0004.24,0003.61
2022-08-27 07:36:00,,0824.8,4.99,0.00,30.2,28.0,00.0,39.0,31.9,25.1,0000.0,0008.44,0004.24,0003.60
2022-08-27 07:37:00,,0824.7,4.99,0.00,30.2,28.2,00.0,39.0,31.9,25.1,0000.0,0008.23,0004.25,0003.60
2022-08-27 07:38:00,,0824.6,5.01,0.00,30.1,28.3,00.0,39.0,31.9,24.9,0000.0,0008.41,0004.25,0003.60
2022-08-27 07:39:00,,0824.6,4.99,0.00,30.1,28.5,00.0,39.0,31.9,24.8,0000.0,0008.75,0004.20,0003.58
2022-08-27 07:40:00,,0824.6,5.01,0.00,30.1,28.6,00.0,39.0,31.9,24.6,0000.0,0008.64,0004.12,0003.57
2022-08-27 07:41:00,,0824.6,4.99,0.00,30.1,28.7,00.0,39.0,31.9,24.5,0000.0,0008.43,0004.08,0003.56
2022-08-27 07:42:00,,0824.6,5.01,0.00,30.1,28.8,00.0,39.0,32.0,24.4,0000.0,0008.58,0004.10,0003.54
2022-08-27 07:43:00,,0824.6,5.00,0.00,30.1,28.8,00.0,39.0,32.0,24.1,0000.0,0008.54,0004.09,0003.52
2022-08-27 07:44:00,,0824.7,5.00,0.00,30.2,28.9,00.0,39.0,32.0,23.8,0000.0,0008.48,0004.03,0003.50
2022-08-27 07:45:00,,0824.6,5.00,0.00,30.2,28.9,00.0,39.0,32.0,23.7,0000.0,0008.47,0003.97,0003.47
2022-08-27 07:46:00,,0824.7,5.00,0.00,30.2,29.0,00.0,39.0,32.0,23.6,0000.0,0008.43,0003.94,0003.44
2022-08-27 07:47:00,,0824.6,5.01,0.00,30.2,29.0,00.0,39.0,32.0,23.5,0000.0,0008.47,0003.92,0003.42
2022-08-27 07:48:00,,0824.6,5.00,0.00,30.2,29.0,00.0,39.0,32.0,23.5,0000.0,0009.23,0003.89,0003.39
2022-08-27 07:49:00,,0824.6,4.99,0.00,30.2,29.0,00.0,39.0,32.1,23.4,0000.0,0009.47,0003.85,0003.37
2022-08-27 07:50:00,,0824.7,5.01,0.00,30.2,29.1,00.0,39.0,32.1,23.2,0000.0,0008.93,0003.82,0003.35
2022-08-27 07:51:00,,0824.5,4.99,0.00,30.3,29.1,00.0,39.1,32.1,23.0,0000.0,0008.68,0003.82,0003.33
2022-08-27 07:52:00,,0824.8,5.00,0.00,30.3,29.1,00.0,39.1,32.1,23.0,0000.0,0008.62,0003.78,0003.31
2022-08-27 07:53:00,,0824.4,5.00,0.00,30.3,29.1,00.0,39.1,32.1,23.1,0000.0,0008.52,0003.73,0003.29
2022-08-27 07:54:00,,0824.4,5.00,0.00,30.3,29.2,00.0,39.1,32.1,23.1,0000.0,0008.58,0003.69,0003.28
2022-08-27 07:55:00,,0824.4,5.00,0.00,30.3,29.2,00.0,39.1,32.2,23.0,0000.0,0008.61,0003.68,0003.28
2022-08-27 07:56:00,,0824.4,5.00,0.00,30.4,29.2,00.0,39.1,32.2,23.0,0000.0,0008.59,0003.68,0003.28
2022-08-27 07:57:00,,0824.4,5.00,0.00,30.4,29.2,00.0,39.1,32.2,23.0,0000.0,0008.54,0003.67,0003.29
2022-08-27 07:58:00,,0824.4,5.00,0.00,30.4,29.3,00.0,39.1,32.2,23.1,0000.0,0008.44,0003.66,0003.30
2022-08-27 07:59:00,,0824.5,5.01,0.00,30.4,29.3,00.0,39.2,32.2,23.1,0000.0,0007.48,0003.65,0003.30
